TimeCST,TemperatureF,Dew PointF,Humidity,Sea Level PressureIn,VisibilityMPH,Wind Direction,Wind SpeedMPH,Gust SpeedMPH,PrecipitationIn,Events,Conditions,WindDirDegrees,DateUTC
12:53 AM,25.0,17.1,72,29.50,10.0,SSE,16.1,25.3,N/A,,Clear,160,2012-01-22 06:53:00
1:53 AM,25.0,17.1,72,29.47,9.0,SSE,11.5,-,N/A,,Clear,160,2012-01-22 07:53:00
2:53 AM,24.1,17.1,75,29.45,9.0,SE,8.1,-,N/A,,Clear,140,2012-01-22 08:53:00
3:53 AM,21.9,17.1,82,29.42,8.0,SE,8.1,-,N/A,,Clear,130,2012-01-22 09:53:00
4:53 AM,19.9,16.0,85,29.41,7.0,East,4.6,-,N/A,,Clear,100,2012-01-22 10:53:00
5:53 AM,18.0,14.0,84,29.41,6.0,East,4.6,-,N/A,,Clear,90,2012-01-22 11:53:00
6:53 AM,16.0,12.9,88,29.40,5.0,ENE,4.6,-,N/A,,Clear,60,2012-01-22 12:53:00
7:53 AM,15.1,10.9,84,29.40,4.0,NNE,3.5,-,N/A,,Partly Cloudy,20,2012-01-22 13:53:00
7:54 AM,14.0,10.4,86,29.32,7.0,NNE,3.5,-,N/A,,Partly Cloudy,20,2012-01-22 13:54:00
7:56 AM,14.0,10.4,86,29.32,5.0,NE,3.5,-,N/A,,Partly Cloudy,40,2012-01-22 13:56:00
8:53 AM,19.9,16.0,85,29.42,5.0,Calm,Calm,-,N/A,,Clear,0,2012-01-22 14:53:00
9:53 AM,26.6,21.2,80,29.36,7.0,Calm,Calm,-,N/A,,Clear,0,2012-01-22 15:53:00
10:53 AM,34.0,23.0,64,29.41,9.0,North,5.8,-,N/A,,Clear,360,2012-01-22 16:53:00
11:53 AM,37.9,21.0,51,29.44,10.0,NNW,12.7,-,N/A,,Clear,330,2012-01-22 17:53:00
12:53 PM,39.0,21.0,49,29.45,10.0,NW,16.1,-,N/A,,Mostly Cloudy,320,2012-01-22 18:53:00
1:53 PM,37.9,19.9,48,29.47,10.0,NNW,19.6,26.5,N/A,,Overcast,340,2012-01-22 19:53:00
2:53 PM,37.4,21.2,52,29.45,10.0,NNW,20.7,32.2,N/A,,Overcast,330,2012-01-22 20:53:00
3:12 PM,33.8,26.6,75,29.47,1.5,NNW,19.6,31.1,0.00,Snow,Light Snow,330,2012-01-22 21:12:00
3:20 PM,32.0,28.4,87,29.47,0.5,NNW,18.4,28.8,0.00,Fog-Snow,Snow,340,2012-01-22 21:20:00
3:37 PM,30.2,28.4,93,29.48,0.2,NNW,17.3,25.3,0.00,Fog-Snow,Snow,340,2012-01-22 21:37:00
3:45 PM,30.2,28.4,93,29.49,0.5,NNW,16.1,-,0.00,Fog-Snow,Snow,340,2012-01-22 21:45:00
3:53 PM,30.9,28.0,89,29.55,0.8,North,13.8,-,0.02,Snow,Light Snow,350,2012-01-22 21:53:00
4:53 PM,30.9,28.9,92,29.59,0.5,NNW,11.5,-,0.06,Fog-Snow,Snow,340,2012-01-22 22:53:00
5:53 PM,32.0,28.9,88,29.62,0.8,NNW,15.0,-,0.04,Snow,Light Snow,340,2012-01-22 23:53:00
6:28 PM,32.0,28.4,87,29.58,1.0,NNW,12.7,-,N/A,Snow,Light Snow,340,2012-01-23 00:28:00
6:53 PM,33.1,30.0,89,29.66,2.5,NNW,17.3,23.0,0.03,Snow,Light Snow,330,2012-01-23 00:53:00
6:56 PM,33.8,30.2,87,29.59,3.0,NNW,15.0,23.0,0.00,Snow,Light Snow,330,2012-01-23 00:56:00
7:53 PM,36.0,30.0,79,29.68,10.0,NNW,19.6,-,0.00,,Overcast,330,2012-01-23 01:53:00
8:00 PM,35.6,30.2,81,29.61,10.0,NNW,19.6,-,N/A,,Overcast,330,2012-01-23 02:00:00
8:14 PM,35.6,30.2,81,29.61,10.0,NNW,19.6,26.5,N/A,,Overcast,330,2012-01-23 02:14:00
8:44 PM,35.6,30.2,81,29.63,10.0,NW,13.8,-,N/A,,Overcast,310,2012-01-23 02:44:00
8:53 PM,36.0,30.0,79,29.69,10.0,NW,17.3,24.2,N/A,,Overcast,320,2012-01-23 02:53:00
9:51 PM,35.6,28.4,75,29.64,10.0,NNW,17.3,26.5,N/A,,Overcast,330,2012-01-23 03:51:00
9:53 PM,36.0,28.9,76,29.69,10.0,NNW,18.4,26.5,N/A,,Overcast,330,2012-01-23 03:53:00
10:53 PM,36.0,28.9,76,29.70,10.0,WNW,17.3,-,N/A,,Overcast,300,2012-01-23 04:53:00
11:53 PM,37.0,27.0,67,29.71,10.0,NW,20.7,32.2,N/A,,Overcast,310,2012-01-23 05:53:00